User: anonymous   Login
Location: Batang Balui
(2.7000°N, 113.7833°E)
Time: 14:33:21
(UTC+00:00)
Language:

Max Valier Satellite - Orbit

View from above orbital plane
View from above orbital plane
View from above satellite
View from above satellite

Ground track
Ground track

The orbit data is extracted from the following two-line orbital elements,

1 42778U 17036P   24113.87277300  .00173433  00000-0  14719-2 0  9995
2 42778  97.1065 150.6314 0004815  83.5676 276.6134 15.69103728380856
Epoch (UTC): 22 April 2024 20:56:47
Eccentricity: 0.0004815
inclination: 97.1065°
perigee height: 358 km
apogee height: 365 km
right ascension of ascending node: 150.6314°
argument of perigee: 83.5676°
revolutions per day: 15.69103728
mean anomaly at epoch: 276.6134°
orbit number at epoch: 38085

The dashed part of the orbit path shows where the satellite is in the earth's shadow,  

DLR